Flag for Norway Weather past 2 weeks in Kirkenes, Norway

Now
47 °F

Cool.


Feels Like: 47 °F
Forecast: 43 / 58 °F
Wind: 2 mph from East

Location: Kirkenes Lufthavn

Current Time: Aug 31, 2014 at 7:22:51 AM

Latest Report: Aug 31, 2014 at 6:00 AM


Visibility: N/A

Pressure: 30.11 "Hg

Humidity: 93%

Dew point: 45 °F

Location of KirkenesLocation

Historic Weather in Kirkenes — Graph

°F

Kirkenes temperature yesterday

Maximum temperature yesterday: 53 °F (at 1:00 PM)
Minimum temperature yesterday: 46 °F (at 4:00 AM)
Average temperature yesterday: 49 °F

Past Weeks' High & Low Weather Summary

 TemperatureHumidityPressure
High59 °F (Aug 25, 2:00 PM)99% (Aug 26, 10:00 AM)30.18 "Hg (Aug 26, 10:00 AM)
Low42 °F (Aug 24, 3:00 AM)50% (Aug 24, 12:00 PM)29.35 "Hg (Aug 20, 8:00 AM)
Average49 °F85%29.81 "Hg
* Reported Aug 16 6:00 AM — Aug 31 6:00 AM, Kirkenes, Weather by CustomWeather, © 2014

Note: Actual official high and low records may vary slightly from our data, if they occured in-between our weather recording intervals... More about our weather records

Advertising

Kirkenes weather history for previous 24 hours

 ConditionsComfort  
Time TempWeatherWind HumidityBarometerVisibility
6:00 AM
Aug 31
47 °FCool.2 mph93%30.11 "HgN/A
5:00 AM46 °FCool.1 mph93%30.12 "HgN/A
4:00 AM48 °FCool.5 mph84%30.13 "HgN/A
3:00 AM47 °FCool.5 mph91%30.15 "HgN/A
2:00 AM47 °FCool.5 mph92%30.16 "HgN/A
1:00 AM48 °FCool.6 mph95%30.16 "HgN/A
12:00 AM47 °FCool.2 mph93%30.17 "HgN/A
11:00 PM
Aug 30
47 °FCool.2 mph91%30.18 "HgN/A
10:00 PM47 °FCool.No wind90%30.18 "HgN/A
9:00 PM48 °FCool.2 mph88%30.18 "HgN/A
8:00 PM48 °FCool.1 mph88%30.18 "HgN/A
7:00 PM49 °FCool.2 mph88%30.18 "HgN/A
6:00 PM50 °FCool.3 mph88%30.17 "HgN/A
5:00 PM51 °FCool.3 mph82%30.17 "HgN/A
4:00 PM52 °FCool.3 mph79%30.16 "HgN/A
3:00 PM52 °FCool.2 mph74%30.16 "HgN/A
2:00 PM52 °FCool.2 mph78%30.15 "HgN/A
1:00 PM53 °FCool.3 mph69%30.14 "HgN/A
12:00 PM53 °FCool.2 mph68%30.13 "HgN/A
11:00 AM52 °FCool.2 mph70%30.12 "HgN/A
10:00 AM51 °FCool.3 mph73%30.11 "HgN/A
9:00 AM50 °FCool.3 mph79%30.11 "HgN/A
8:00 AM49 °FCool.2 mph87%30.10 "HgN/A
7:00 AM48 °FCool.1 mph90%30.09 "HgN/A
Weather by CustomWeather, © 2014

See weather overviewHow to use our weather pages